Temperature
6 6 6 7 9 10 11 11 12 12 13 13 13 14 15 16 16 17 17 18 18 18 18 17 17 17 17 16 16 16 16 15 15 15 15 15 15 15 15 14 14 14 14 14
6 6 7 8 9 10 11 11 12 13 13 13 13 14 15 16 16 17 17 18 18 18 18 17 17 17 17 16 16 16 16 16 15 15 15 15 15 15 15 15 14 14 14 14
6 7 8 8 9 10 10 11 12 12 12 13 13 13 14 15 17 17 17 17 18 18 18 17 17 17 17 16 16 16 16 16 16 15 15 15 15 15 15 15 15 15 15 15
7 7 8 8 9 10 11 12 12 12 11 11 13 12 14 15 15 16 17 17 18 18 18 17 17 17 17 16 16 16 16 16 16 15 15 15 15 15 15 15 15 15 15 15
7 8 8 9 10 11 11 13 12 12 12 12 13 13 14 15 15 16 16 17 18 18 18 17 17 17 16 16 16 16 16 16 16 15 15 15 15 15 15 14 14 14 14 14
8 8 8 9 11 11 11 12 12 12 11 11 13 13 14 15 16 16 16 18 18 17 17 17 17 16 16 16 16 16 16 16 16 16 15 15 15 15 14 14 14 14 14 14
7 8 8 9 10 11 11 10 9 9 9 10 13 13 14 16 16 16 16 17 17 17 17 16 16 16 15 15 15 15 15 15 15 15 15 15 15 14 14 14 14 13 13 13
7 7 8 9 10 10 10 10 10 10 9 11 13 13 14 16 15 15 15 16 16 16 16 15 15 15 15 15 15 15 15 14 14 14 14 14 14 14 14 13 13 13 13 12
8 8 9 10 10 11 11 10 11 11 12 11 11 14 15 15 15 15 15 15 15 15 15 15 14 14 14 14 14 14 13 13 14 14 14 13 13 13 13 13 12 12 12 12
9 8 9 10 10 11 11 11 11 10 10 11 12 13 13 13 14 14 14 14 14 14 14 14 13 13 13 13 12 12 12 12 12 12 13 13 13 13 12 12 12 11 11 11
10 8 8 9 9 10 11 11 11 11 11 10 11 12 14 13 14 13 13 14 14 13 13 13 12 12 12 11 11 11 11 11 11 12 12 12 12 12 11 11 11 10 10 10
10 9 8 9 10 10 10 11 11 10 10 11 10 12 14 13 13 13 13 13 13 13 12 12 12 11 10 10 10 9 10 10 10 11 11 11 11 11 10 10 10 9 9 9
10 9 7 8 8 9 10 11 12 11 10 9 10 11 14 13 13 14 13 13 13 12 12 11 11 10 10 9 8 8 9 9 10 10 10 10 10 10 10 9 9 8 8 8
10 9 9 8 9 9 9 10 11 10 8 9 10 12 13 13 13 13 13 13 13 12 12 11 11 10 9 8 8 8 8 9 9 10 10 9 9 9 9 8 8 8 7 7
10 9 9 9 10 10 10 10 10 9 9 9 11 11 12 13 12 13 13 13 12 12 11 11 10 10 9 8 8 8 8 9 9 9 9 9 9 8 8 8 7 7 6 5
9 8 7 8 9 9 9 9 10 10 10 10 10 10 12 12 13 12 12 12 12 11 11 11 10 10 9 9 8 8 9 9 9 9 9 9 8 8 7 7 6 6 5 4
9 8 7 8 9 9 7 9 9 10 10 10 9 10 11 11 11 11 11 10 10 10 10 10 10 10 9 9 9 9 9 9 9 9 8 8 8 7 7 6 5 4 4 3
9 8 7 7 8 6 9 10 10 10 10 10 10 10 10 10 10 10 10 9 9 9 9 10 10 10 9 9 9 9 9 9 9 8 8 8 7 7 6 5 4 3 3 2
9 8 7 7 7 8 9 9 9 9 9 10 10 10 10 9 9 9 8 8 8 8 8 9 9 9 9 9 9 9 9 9 8 8 8 7 7 6 5 5 4 2 2 1
9 8 7 7 7 8 8 9 9 9 8 8 9 8 9 9 7 7 7 7 7 7 8 8 8 9 8 8 8 8 8 8 8 8 7 7 6 5 5 4 3 2 1 1
7 7 6 6 7 8 8 8 9 7 6 8 8 7 7 7 6 7 7 6 7 7 7 7 8 8 8 8 8 8 8 8 7 7 6 6 5 5 4 3 3 2 1 0
6 6 6 6 6 6 7 8 7 6 7 7 6 6 6 6 6 6 6 6 6 6 6 7 7 7 7 7 7 7 7 6 6 6 5 5 4 4 3 3 2 1 1 0
7 6 6 6 6 6 6 6 5 5 5 5 5 5 5 5 5 5 5 5 6 6 6 6 6 6 6 6 6 6 6 6 5 5 5 4 4 3 3 3 2 1 1 1
5 5 6 6 6 6 5 5 4 4 4 4 4 4 4 4 4 5 5 5 5 5 5 6 6 6 6 6 6 5 5 5 5 4 4 4 3 3 3 2 2 1 1 1
4 4 4 5 5 5 4 3 3 3 3 3 3 3 3 3 4 4 4 4 4 5 5 5 5 5 5 5 5 5 5 4 4 4 3 3 3 2 2 2 2 2 1 1
3 3 3 3 3 3 3 2 2 2 2 2 2 2 2 3 3 3 3 3 4 4 4 4 4 4 4 4 4 4 4 4 3 3 3 3 2 2 2 2 1 1 1 1
Wind_Speed
2 3 6 8 9 7 9 10 12 10 9 11 13 11 8 8 7 8 8 8 8 8 8 8 9 8 7 6 7 9 9 8 6 5 5 5 4 3 3 3 5 5 5 5
2 4 6 4 8 7 6 9 9 6 8 9 10 11 9 9 9 9 10 10 9 8 8 9 9 9 8 8 7 7 8 8 7 6 5 4 4 3 3 3 4 4 3 2
2 1 2 5 6 6 6 8 7 7 6 7 6 8 11 10 11 11 10 10 9 9 10 10 10 9 9 8 8 6 7 7 7 6 5 3 3 2 2 3 3 2 2 1
1 1 2 4 6 7 5 6 7 10 8 5 8 5 11 13 13 13 12 11 10 9 8 10 10 10 10 8 6 6 6 6 5 6 6 6 5 4 4 3 3 3 2 2
1 1 3 4 5 5 3 3 5 7 6 4 8 5 6 14 14 14 13 12 11 9 8 8 9 9 9 8 7 6 6 6 5 5 6 6 4 4 3 3 4 3 3 4
1 1 0 1 1 2 3 4 4 3 3 3 7 7 5 7 12 12 12 11 11 9 8 8 8 9 8 7 7 5 6 6 6 5 5 5 6 5 5 4 3 3 3 3
2 2 0 1 3 3 5 6 4 3 3 4 7 6 4 3 6 4 3 4 4 5 6 7 8 8 8 8 8 7 7 6 6 6 5 5 5 5 5 4 3 3 2 3
2 2 3 2 2 4 6 4 2 4 6 3 4 5 2 6 9 7 5 3 2 1 3 5 7 8 8 9 8 8 8 7 7 6 6 6 6 5 4 5 4 4 3 4
3 3 3 2 1 0 4 4 3 2 1 4 5 5 4 7 7 5 4 3 2 2 2 4 6 7 8 9 9 8 8 8 7 7 7 7 7 6 6 5 5 4 4 3
2 4 4 1 1 2 2 2 1 1 1 2 6 7 6 9 8 7 6 5 4 3 2 3 4 6 7 7 8 8 8 8 8 7 7 7 7 7 6 5 5 4 4 3
1 3 4 3 3 3 3 2 3 1 1 0 2 1 3 9 8 8 7 6 5 4 2 2 4 5 7 7 7 7 8 8 8 8 7 7 7 6 5 5 5 4 4 3
1 3 3 2 0 3 4 4 3 1 2 1 1 1 4 9 8 7 6 5 4 3 2 3 5 6 6 7 7 7 7 8 7 7 7 7 7 6 5 5 5 4 3 3
1 3 4 2 2 4 4 6 5 2 1 1 1 2 4 7 6 4 3 3 3 3 3 3 5 6 7 7 7 7 7 8 7 7 8 7 7 6 5 5 5 4 3 2
3 1 1 2 1 5 5 7 6 3 3 3 4 3 3 4 4 3 2 1 1 1 3 4 5 6 8 8 8 8 8 8 8 8 8 7 7 6 6 6 5 3 3 2
1 1 2 2 3 2 2 5 8 8 6 5 4 5 5 3 3 3 3 3 2 2 2 4 6 6 8 8 9 9 8 8 8 8 8 7 7 7 6 5 4 3 3 2
0 1 1 1 1 1 2 5 7 8 9 9 9 9 6 5 5 6 6 6 5 5 4 5 6 7 8 9 9 9 9 9 8 8 8 7 7 7 6 5 5 4 3 2
1 2 1 2 3 1 5 7 9 7 6 6 8 6 5 6 6 6 6 6 7 7 5 5 5 7 8 9 9 10 10 9 9 8 8 8 8 7 6 6 5 5 4 3
1 1 1 1 2 4 2 4 2 2 4 3 3 4 5 5 6 5 4 6 7 7 7 5 3 4 6 7 8 9 9 10 9 8 8 8 8 7 7 6 6 5 4 4
1 1 1 1 3 5 3 3 2 1 1 2 3 4 6 7 6 3 7 6 6 7 7 6 3 2 4 6 8 10 9 9 9 9 9 9 9 8 8 7 6 5 4 4
2 2 1 2 2 2 3 4 3 2 0 6 6 6 6 6 4 2 7 7 7 7 6 6 4 2 3 4 7 9 9 9 9 9 8 8 8 8 8 7 6 5 4 4
2 2 3 3 3 1 3 1 0 1 1 6 6 6 7 5 3 5 7 6 5 6 6 6 5 4 3 4 6 7 7 7 7 7 8 8 8 8 7 7 6 6 5 5
4 3 3 3 4 2 3 2 3 3 5 6 7 7 6 6 6 6 6 5 5 5 5 6 5 4 3 3 4 4 5 5 6 7 7 7 7 7 7 7 7 6 6 6
1 1 0 1 1 4 5 5 5 6 6 7 7 7 7 7 6 6 5 5 4 4 4 4 3 2 2 2 3 4 4 6 7 7 7 7 7 7 7 8 8 7 6 6
3 3 2 1 3 4 5 6 7 8 7 7 7 7 7 7 7 6 6 4 4 3 3 3 2 1 0 1 2 3 5 6 7 7 7 7 7 7 7 7 7 7 7 7
1 1 1 2 2 3 4 7 7 8 7 8 8 7 7 7 7 6 6 5 4 3 2 2 2 2 1 1 1 2 5 6 6 6 6 7 7 7 7 7 7 8 7 8
1 1 1 0 3 3 4 6 7 7 8 8 9 9 7 6 7 7 6 5 4 4 3 3 3 3 2 1 1 2 4 5 6 6 6 6 6 6 6 6 6 10 10 13
Wind_Direction
163 186 207 207 220 229 186 187 198 200 180 192 210 220 216 191 207 226 235 231 213 194 169 160 158 156 158 167 166 169 171 175 169 170 172 174 184 181 177 169 176 181 186 192
149 219 228 238 241 242 222 197 196 179 173 190 208 220 226 215 208 213 227 233 226 207 179 167 162 161 164 170 173 170 169 171 170 173 172 167 161 166 167 152 157 159 158 172
188 224 232 224 220 219 224 201 180 156 161 206 199 218 225 226 219 211 221 231 231 217 192 177 171 168 168 171 172 170 163 161 162 156 141 132 125 124 153 164 159 133 142 177
250 227 213 211 206 197 205 189 169 154 158 191 192 211 216 214 219 214 214 220 224 225 202 181 176 171 171 164 152 153 150 153 155 154 158 164 167 174 182 167 147 134 133 91
152 181 197 202 201 189 175 155 160 166 187 193 194 220 231 200 207 210 208 212 214 215 196 176 171 164 154 141 142 152 152 154 157 163 167 171 166 159 139 129 137 146 125 102
99 100 313 236 196 180 142 130 122 173 206 224 203 204 258 199 192 195 198 201 204 196 184 169 156 142 137 136 141 154 158 157 154 154 154 159 153 143 139 143 147 142 129 116
81 103 132 224 129 154 164 134 131 157 190 224 200 204 238 96 104 106 140 170 185 171 161 154 146 144 146 151 157 163 164 158 154 149 143 138 136 136 142 142 137 127 115 105
125 131 176 206 172 173 195 188 153 163 177 178 160 207 239 110 91 78 62 61 56 103 145 158 159 156 158 162 165 170 167 160 151 140 125 111 103 101 101 93 92 91 90 88
135 121 151 176 315 191 188 219 291 322 157 141 186 214 183 114 123 140 150 128 104 83 118 148 152 158 163 167 171 173 163 153 144 134 122 113 105 99 98 93 86 84 83 82
105 118 143 152 264 301 297 236 235 50 139 180 184 189 191 167 169 156 144 138 133 118 114 140 150 156 160 160 160 160 155 147 140 132 125 120 110 103 103 104 101 92 83 76
116 120 139 165 207 204 202 229 245 247 307 269 176 129 73 123 124 123 110 97 96 103 117 138 140 140 141 141 149 154 147 140 137 130 124 120 113 110 111 106 97 89 81 71
191 133 142 171 128 322 286 243 229 186 264 299 11 50 85 99 100 101 105 111 110 111 120 134 142 140 143 150 155 154 146 143 142 136 132 124 119 120 117 109 100 91 86 76
191 142 132 163 222 224 248 250 250 258 353 250 186 187 118 114 128 144 158 164 157 155 152 157 157 160 163 164 163 157 151 146 141 136 133 129 133 135 126 116 106 96 90 83
325 227 193 167 140 169 197 217 226 202 184 235 232 230 195 175 183 189 196 216 208 181 178 186 180 178 175 172 168 162 157 150 146 143 143 145 145 137 125 116 112 106 97 92
309 329 29 29 14 61 189 214 216 217 214 218 249 266 285 324 356 6 1 348 331 287 234 212 197 190 181 176 170 164 160 154 151 151 151 149 137 128 124 126 126 121 115 112
281 86 60 305 236 225 255 247 236 234 236 247 265 276 299 329 355 355 346 335 312 291 261 232 209 197 189 182 175 167 164 160 156 158 156 146 139 139 142 146 144 144 146 144
185 143 157 218 165 242 254 235 225 224 225 234 250 267 328 341 345 345 342 332 318 309 293 253 221 207 197 186 175 173 168 158 160 161 156 152 151 154 157 158 158 165 167 158
234 171 193 258 139 233 216 60 51 251 254 257 286 325 341 345 335 332 350 341 328 327 320 300 249 214 196 176 164 158 154 158 162 162 160 158 159 161 159 162 168 167 156 155
287 223 229 238 241 250 162 107 74 3 300 18 357 353 2 354 328 20 20 7 346 333 326 318 300 235 178 161 155 150 154 158 164 169 167 164 164 163 164 169 168 161 156 158
248 267 257 245 265 283 89 80 42 357 128 39 29 9 358 349 336 352 3 2 355 350 344 337 341 29 98 128 137 147 158 165 176 175 167 162 162 165 170 171 165 159 162 170
182 216 227 242 250 293 66 74 20 338 65 16 18 12 2 353 332 325 345 356 358 353 349 353 13 46 71 102 128 151 162 177 172 158 154 157 161 164 166 165 163 163 167 171
178 192 202 207 224 224 37 39 45 41 16 16 11 4 350 333 330 338 345 347 357 360 5 9 22 37 55 90 124 151 169 162 147 146 152 157 161 166 167 164 167 171 175 181
106 44 315 189 131 80 59 65 46 26 12 3 353 343 337 327 328 333 337 347 357 8 7 9 25 43 62 114 146 170 170 153 150 154 163 166 168 170 169 170 175 181 188 195
73 15 338 339 86 67 72 60 35 18 3 349 342 335 335 324 324 330 332 338 343 352 359 358 1 5 312 180 178 172 156 155 161 171 175 174 174 177 179 184 186 192 198 203
78 22 320 282 22 24 68 38 6 350 348 345 339 333 327 323 320 321 319 322 328 335 348 344 331 316 292 241 190 163 158 162 174 181 182 182 185 186 191 197 203 204 208 206
150 150 214 290 45 340 324 347 341 339 340 337 330 324 322 320 317 318 316 325 332 335 339 332 328 323 312 288 232 184 173 176 184 191 193 193 194 194 197 202 215 220 219 224
Height
1474 1477 1475 1474 1474 1471 1470 1473 1477 1477 1477 1483 1486 1486 1484 1486 1488 1490 1492 1495 1498 1501 1504 1507 1509 1512 1515 1518 1520 1523 1525 1528 1531 1534 1536 1539 1541 1544 1546 1548 1549 1551 1552 1553
1476 1476 1473 1473 1473 1472 1471 1473 1475 1475 1476 1481 1484 1484 1483 1483 1485 1488 1490 1493 1495 1498 1501 1503 1506 1509 1512 1515 1517 1520 1523 1525 1528 1531 1534 1536 1539 1541 1543 1545 1546 1548 1549 1550
1473 1473 1472 1473 1472 1473 1472 1472 1474 1477 1480 1480 1482 1486 1483 1481 1482 1485 1487 1489 1492 1495 1497 1499 1503 1505 1508 1511 1514 1517 1519 1522 1525 1528 1530 1533 1535 1537 1539 1541 1543 1544 1545 1546
1472 1472 1472 1472 1471 1470 1471 1468 1472 1476 1484 1486 1483 1492 1482 1478 1479 1479 1482 1485 1488 1491 1494 1496 1498 1501 1504 1507 1510 1513 1516 1519 1522 1525 1527 1529 1531 1533 1535 1537 1539 1540 1541 1542
1472 1471 1472 1471 1469 1468 1469 1468 1472 1476 1481 1482 1481 1486 1478 1470 1474 1475 1477 1480 1484 1487 1489 1492 1494 1497 1500 1503 1506 1509 1512 1515 1518 1521 1523 1525 1527 1529 1532 1533 1535 1536 1537 1538
1472 1473 1473 1471 1469 1469 1470 1472 1475 1477 1482 1490 1480 1484 1479 1466 1466 1468 1471 1475 1479 1482 1485 1488 1491 1494 1496 1499 1502 1505 1508 1511 1514 1516 1519 1521 1523 1525 1527 1529 1530 1531 1532 1532
1474 1474 1474 1473 1473 1473 1473 1480 1488 1491 1492 1489 1473 1477 1474 1461 1461 1465 1468 1472 1475 1478 1481 1484 1487 1490 1492 1495 1499 1501 1504 1507 1510 1512 1514 1517 1519 1521 1523 1525 1526 1526 1527 1527
1475 1477 1475 1473 1472 1474 1474 1477 1484 1488 1491 1483 1473 1478 1470 1461 1463 1466 1469 1471 1474 1476 1479 1481 1484 1486 1489 1492 1495 1497 1500 1503 1505 1508 1510 1513 1515 1517 1519 1520 1521 1522 1522 1522
1472 1476 1474 1473 1473 1472 1475 1477 1475 1476 1474 1481 1481 1471 1464 1462 1465 1468 1470 1472 1474 1476 1478 1480 1482 1484 1486 1488 1491 1493 1496 1498 1501 1503 1506 1508 1511 1513 1514 1516 1517 1517 1517 1517
1468 1475 1474 1474 1474 1474 1474 1472 1476 1480 1481 1483 1476 1473 1470 1466 1467 1468 1470 1472 1474 1476 1477 1479 1480 1481 1483 1485 1487 1490 1492 1494 1497 1500 1502 1505 1507 1509 1510 1511 1512 1512 1512 1512
1467 1474 1477 1476 1476 1475 1475 1475 1473 1474 1475 1482 1481 1477 1460 1462 1465 1468 1470 1472 1474 1475 1476 1477 1478 1479 1480 1482 1484 1486 1489 1491 1494 1496 1499 1501 1503 1505 1506 1507 1507 1508 1508 1508
1467 1472 1477 1477 1475 1475 1474 1472 1473 1481 1480 1476 1483 1481 1461 1463 1465 1468 1471 1472 1473 1474 1475 1476 1476 1476 1477 1479 1480 1483 1485 1488 1491 1493 1496 1497 1499 1501 1502 1502 1503 1503 1503 1503
1466 1472 1480 1482 1482 1477 1475 1472 1470 1473 1479 1481 1485 1480 1464 1465 1467 1469 1471 1472 1472 1473 1473 1474 1474 1474 1475 1476 1478 1480 1483 1485 1488 1490 1492 1494 1496 1497 1498 1498 1499 1499 1499 1498
1467 1468 1473 1476 1472 1471 1474 1472 1471 1476 1485 1482 1478 1473 1469 1467 1468 1468 1469 1470 1471 1471 1471 1472 1472 1472 1473 1474 1476 1478 1480 1483 1485 1488 1489 1491 1492 1493 1494 1494 1495 1494 1494 1494
1468 1470 1470 1470 1468 1468 1469 1470 1471 1475 1476 1480 1474 1471 1468 1467 1467 1468 1468 1469 1469 1469 1469 1469 1469 1470 1471 1472 1473 1475 1477 1480 1483 1485 1486 1488 1489 1490 1490 1490 1490 1490 1490 1489
1468 1472 1474 1474 1470 1470 1472 1470 1470 1470 1471 1472 1472 1471 1467 1467 1467 1467 1467 1468 1468 1468 1467 1467 1467 1467 1468 1469 1470 1472 1474 1477 1479 1481 1483 1484 1485 1486 1486 1486 1486 1485 1485 1485
1469 1472 1476 1474 1470 1472 1475 1468 1467 1468 1466 1468 1471 1470 1467 1467 1467 1468 1467 1467 1467 1466 1465 1464 1463 1463 1464 1465 1467 1469 1471 1474 1476 1478 1479 1480 1481 1482 1482 1482 1481 1481 1481 1481
1469 1471 1475 1474 1475 1483 1469 1463 1463 1464 1465 1465 1466 1466 1467 1467 1467 1467 1466 1466 1465 1463 1462 1461 1460 1460 1461 1462 1464 1466 1468 1470 1472 1474 1475 1476 1477 1477 1477 1477 1477 1477 1477 1477
1468 1470 1474 1476 1475 1471 1466 1465 1465 1466 1467 1466 1466 1467 1467 1467 1466 1466 1465 1464 1463 1461 1459 1458 1457 1457 1458 1459 1460 1462 1464 1466 1468 1469 1471 1472 1473 1473 1473 1473 1473 1473 1474 1474
1468 1470 1474 1474 1475 1472 1470 1467 1466 1468 1470 1469 1468 1469 1468 1467 1469 1468 1465 1463 1461 1459 1457 1455 1455 1454 1455 1456 1457 1459 1460 1462 1463 1465 1467 1468 1469 1469 1469 1469 1469 1470 1471 1471
1471 1472 1474 1475 1475 1469 1470 1467 1467 1474 1476 1473 1471 1470 1470 1469 1470 1468 1464 1462 1460 1457 1455 1454 1453 1453 1453 1454 1455 1456 1457 1458 1460 1461 1463 1464 1465 1465 1466 1466 1466 1467 1467 1468
1470 1472 1472 1473 1475 1476 1471 1469 1473 1476 1474 1473 1472 1471 1470 1469 1467 1465 1463 1461 1459 1456 1455 1453 1452 1452 1452 1452 1453 1453 1454 1455 1456 1458 1459 1460 1461 1461 1462 1462 1463 1463 1464 1465
1468 1471 1470 1471 1475 1473 1472 1473 1474 1474 1473 1473 1472 1470 1469 1467 1465 1464 1462 1460 1458 1456 1454 1453 1452 1451 1451 1451 1451 1451 1452 1453 1453 1454 1455 1456 1457 1457 1458 1459 1459 1460 1461 1462
1470 1471 1471 1470 1471 1472 1473 1473 1473 1473 1473 1472 1470 1469 1467 1466 1464 1462 1460 1458 1457 1455 1453 1452 1451 1450 1450 1449 1449 1449 1449 1450 1450 1451 1452 1452 1453 1453 1454 1455 1456 1456 1457 1458
1472 1472 1472 1472 1472 1472 1472 1473 1473 1472 1471 1469 1468 1466 1465 1463 1461 1460 1458 1456 1455 1453 1452 1450 1449 1448 1448 1447 1447 1447 1447 1447 1447 1447 1448 1448 1449 1449 1450 1451 1452 1452 1454 1455
1472 1473 1474 1474 1474 1475 1473 1472 1472 1470 1468 1467 1465 1463 1462 1461 1459 1457 1455 1454 1452 1451 1449 1448 1447 1446 1445 1444 1444 1444 1444 1443 1443 1443 1444 1444 1445 1445 1446 1447 1448 1448 1450 1450